Wallops Island, VA

11:58 AM EST on December 06, 2019 (GMT -0500)
Wallops Flight Facility

Weather History for KWAL - October, 2019

Change the Weather History Date:

Sunday, October 20, 2019

  Actual Average Record
Temperature  
Mean Temperature 59 °F 58 °F  
Max Temperature 65 °F 67 °F 80 °F (1984)
Min Temperature 53 °F 49 °F 29 °F (1974)
Degree Days  
Heating Degree Days 6    
Month to date heating degree days 64  
Since 1 July heating degree days 73  
Cooling Degree Days 0    
Month to date cooling degree days 53  
Year to date cooling degree days 1800  
Growing Degree Days 8 (Base 50)    
Moisture  
Dew Point 61 °F    
Average Humidity 92    
Maximum Humidity 100    
Minimum Humidity 83    
Precipitation  
Precipitation 4.60 in 0.09 in 4.60 in (2019)
Month to date precipitation 7.25 2.02  
Year to date precipitation 41.58 33.39  
Sea Level Pressure  
Sea Level Pressure 29.78 in    
Wind  
Wind Speed 16 mph (NE)    
Max Wind Speed 29 mph    
Max Gust Speed 37 mph    
Visibility 3 miles    
Events Fog , Rain    
T = Trace of Precipitation, MM = Missing Value Source: NWS Daily Summary

Daily Weather History Graph

Daily Weather History Graph

Search for Another Location

Airport or City:

Astronomy

Oct. 20, 2019 Rise Set
Actual Time 7:15 AM EDT 6:17 PM EDT
Civil Twilight 6:48 AM EDT 6:44 PM EDT
Nautical Twilight 6:17 AM EDT 7:15 PM EDT
Astronomical Twilight 5:47 AM EDT 7:45 PM EDT
Moon 11:28 PM EDT (10/20) 1:36 PM EDT (10/20)
Length of Visible Light 11h 56m
Length of Day
11h 02m
Waning Gibbous, 59% of the Moon is Illuminated
Oct 20
Waning Gibbous
Oct 21
Last Quarter
Oct 27
New
Nov 4
First Quarter
Nov 12
Full

Hourly Weather History & Observations

Time (EDT) Temp. Dew Point Humidity Pressure Visibility Wind Dir Wind Speed Gust Speed Precip Events Conditions
12:54 AM 55.0 °F 50.0 °F 83% 30.02 in 10.0 mi SE 3.5 mph - N/A   Mostly Cloudy
1:54 AM 55.0 °F 51.1 °F 86% 30.02 in 10.0 mi Calm Calm - N/A   Scattered Clouds
2:54 AM 55.9 °F 53.1 °F 90% 29.99 in 10.0 mi Calm Calm - N/A   Overcast
3:54 AM 57.9 °F 53.1 °F 84% 29.96 in 10.0 mi East 5.8 mph - N/A   Overcast
4:54 AM 60.1 °F 55.0 °F 83% 29.95 in 10.0 mi East 5.8 mph - N/A   Partly Cloudy
5:54 AM 61.0 °F 55.9 °F 83% 29.95 in 10.0 mi East 5.8 mph - N/A   Overcast
6:54 AM 62.1 °F 57.0 °F 84% 29.95 in 10.0 mi ENE 5.8 mph - 0.00 in Rain Light Rain
7:54 AM 61.0 °F 60.1 °F 97% 29.92 in 5.0 mi East 9.2 mph - 0.08 in Rain Rain
8:30 AM 62.1 °F 60.1 °F 93% 29.93 in 4.0 mi East 12.7 mph - 0.08 in Rain Rain
8:54 AM 62.1 °F 60.1 °F 93% 29.93 in 3.0 mi East 13.8 mph - 0.14 in Rain Heavy Rain
9:44 AM 62.1 °F 61.0 °F 96% 29.92 in 2.5 mi East 17.3 mph 25.3 mph 0.13 in Rain Heavy Rain
9:51 AM 62.6 °F 60.8 °F 94% 29.91 in 4.0 mi East 17.3 mph - 0.13 in Rain Rain
9:54 AM 62.1 °F 61.0 °F 96% 29.91 in 5.0 mi East 16.1 mph - 0.14 in Rain Rain
10:12 AM 62.1 °F 61.0 °F 96% 29.91 in 4.0 mi East 16.1 mph - 0.04 in Rain Rain
10:33 AM 62.1 °F 62.1 °F 100% 29.90 in 2.5 mi East 19.6 mph - 0.13 in Rain Heavy Rain
10:41 AM 62.1 °F 62.1 °F 100% 29.90 in 3.0 mi East 19.6 mph - 0.16 in Rain Rain
10:50 AM 62.6 °F 62.6 °F 100% 29.89 in 3.0 mi East 18.4 mph 26.5 mph 0.18 in Rain Rain
10:54 AM 63.0 °F 62.1 °F 97% 29.88 in 3.0 mi East 19.6 mph 26.5 mph 0.19 in Rain Rain
11:09 AM 63.0 °F 62.1 °F 97% 29.88 in 2.5 mi East 18.4 mph - 0.06 in Rain Heavy Rain
11:15 AM 63.0 °F 62.1 °F 97% 29.88 in 1.8 mi East 21.9 mph - 0.09 in Rain Heavy Rain
11:42 AM 63.0 °F 62.1 °F 97% 29.85 in 2.0 mi ENE 19.6 mph 26.5 mph 0.34 in Rain Heavy Rain
11:54 AM 63.0 °F 62.1 °F 97% 29.83 in 2.5 mi ENE 19.6 mph 27.6 mph 0.40 in Rain Heavy Rain
12:19 PM 63.0 °F 63.0 °F 100% 29.82 in 3.0 mi East 16.1 mph - 0.08 in Rain Rain
12:39 PM 63.0 °F 63.0 °F 100% 29.80 in 2.5 mi ENE 19.6 mph - 0.13 in Rain Heavy Rain
12:42 PM 63.0 °F 63.0 °F 100% 29.80 in 1.8 mi ENE 18.4 mph - 0.15 in Rain Heavy Rain
12:54 PM 63.0 °F 63.0 °F 100% 29.78 in 1.0 mi ENE 20.7 mph 29.9 mph 0.28 in Rain Heavy Rain
1:10 PM 62.6 °F 62.6 °F 100% 29.77 in 1.2 mi ENE 21.9 mph 32.2 mph N/A Rain Heavy Rain
1:54 PM 63.0 °F 63.0 °F 100% 29.74 in 1.2 mi ENE 21.9 mph 29.9 mph 0.53 in Rain Heavy Rain
2:05 PM 63.0 °F 63.0 °F 100% 29.72 in 0.8 mi ENE 21.9 mph 29.9 mph 0.15 in Rain Heavy Rain
2:14 PM 62.6 °F 62.6 °F 100% 29.73 in 1.0 mi East 16.1 mph 27.6 mph N/A Rain Heavy Rain
2:20 PM 63.0 °F 63.0 °F 100% 29.71 in 0.5 mi ENE 20.7 mph 25.3 mph 0.43 in Fog , Rain Heavy Rain
2:34 PM 63.0 °F 63.0 °F 100% 29.71 in 1.0 mi ENE 17.3 mph 29.9 mph 0.76 in Rain Heavy Rain
2:50 PM 62.6 °F 62.6 °F 100% 29.70 in 0.8 mi NE 16.1 mph - 0.94 in Rain Heavy Rain
2:54 PM 63.0 °F 63.0 °F 100% 29.69 in 0.8 mi NNE 18.4 mph - 1.00 in Rain Heavy Rain
3:01 PM 64.0 °F 64.0 °F 100% 29.70 in 0.5 mi NNE 16.1 mph 25.3 mph 0.18 in Fog , Rain Heavy Rain
3:13 PM 64.0 °F 64.0 °F 100% 29.70 in 0.5 mi NNE 19.6 mph - 0.46 in Fog , Rain Heavy Rain
3:24 PM 64.4 °F 64.4 °F 100% 29.70 in 0.5 mi North 17.3 mph - N/A Fog , Rain Heavy Rain
3:31 PM 64.0 °F 64.0 °F 100% 29.72 in 0.8 mi North 13.8 mph - 0.89 in Rain Heavy Rain
3:43 PM 64.0 °F 64.0 °F 100% 29.68 in 1.0 mi NE 20.7 mph 26.5 mph 1.13 in Rain Heavy Rain
3:48 PM 64.4 °F 64.4 °F 100% 29.68 in 1.2 mi NE 24.2 mph - 1.21 in Rain Heavy Rain
3:54 PM 64.0 °F 64.0 °F 100% 29.68 in 1.8 mi NE 21.9 mph 32.2 mph 1.25 in Rain Heavy Rain
4:01 PM 64.0 °F 64.0 °F 100% 29.68 in 2.5 mi NNE 24.2 mph 32.2 mph 0.04 in Rain Heavy Rain
4:06 PM 64.9 °F 64.9 °F 100% 29.68 in 4.0 mi NE 19.6 mph 31.1 mph 0.05 in Rain Rain
4:14 PM 64.9 °F 64.9 °F 100% 29.68 in 3.0 mi NE 24.2 mph 33.4 mph 0.07 in Rain Rain
4:32 PM 64.0 °F 64.0 °F 100% 29.67 in 2.0 mi NE 24.2 mph 32.2 mph 0.10 in Rain Heavy Rain
4:37 PM 63.0 °F 63.0 °F 100% 29.66 in 1.0 mi NE 25.3 mph - 0.15 in Rain Heavy Rain
4:52 PM 64.4 °F 64.4 °F 100% 29.65 in 1.8 mi NE 23.0 mph 31.1 mph 0.31 in Rain Heavy Rain
4:54 PM 64.0 °F 64.0 °F 100% 29.65 in 1.8 mi NE 24.2 mph 35.7 mph 0.33 in Rain Heavy Rain
5:10 PM 64.0 °F 64.0 °F 100% 29.64 in 2.0 mi NE 25.3 mph 34.5 mph 0.08 in Rain Rain
5:18 PM 64.0 °F 64.0 °F 100% 29.64 in 2.5 mi NE 25.3 mph 33.4 mph 0.08 in Rain Light Rain
5:23 PM 64.0 °F 64.0 °F 100% 29.64 in 1.8 mi NE 26.5 mph 34.5 mph 0.09 in Rain Light Rain
5:41 PM 64.0 °F 64.0 °F 100% 29.64 in 1.8 mi NE 24.2 mph 31.1 mph 0.12 in Rain Light Rain
5:48 PM 64.4 °F 64.4 °F 100% 29.64 in 2.5 mi NE 23.0 mph 31.1 mph 0.12 in Rain Light Rain
5:54 PM 63.0 °F 63.0 °F 100% 29.63 in 2.0 mi NE 23.0 mph 34.5 mph 0.13 in Rain Light Rain
6:04 PM 64.0 °F 64.0 °F 100% 29.64 in 2.5 mi NE 21.9 mph - 0.00 in Rain Light Rain
6:35 PM 64.0 °F 64.0 °F 100% 29.64 in 3.0 mi NE 24.2 mph 34.5 mph 0.01 in Rain Light Rain
6:54 PM 63.0 °F 63.0 °F 100% 29.64 in 4.0 mi NNE 26.5 mph 34.5 mph 0.02 in Rain Light Rain
7:27 PM 62.1 °F 62.1 °F 100% 29.66 in 7.0 mi NNE 27.6 mph 35.7 mph 0.00 in Rain Light Rain
7:54 PM 62.1 °F 62.1 °F 100% 29.67 in 4.0 mi North 23.0 mph 36.8 mph 0.00 in Rain Light Rain
8:08 PM 62.1 °F 62.1 °F 100% 29.69 in 2.0 mi North 16.1 mph 31.1 mph 0.01 in Rain Light Rain
8:29 PM 61.0 °F 61.0 °F 100% 29.71 in 2.0 mi North 13.8 mph 25.3 mph 0.03 in Rain Light Rain
8:54 PM 60.1 °F 60.1 °F 100% 29.72 in 2.0 mi North 17.3 mph 25.3 mph 0.06 in Rain Light Rain
9:37 PM 60.1 °F 60.1 °F 100% 29.75 in 2.5 mi North 18.4 mph 27.6 mph 0.03 in Rain Light Rain
9:54 PM 60.1 °F 60.1 °F 100% 29.75 in 2.5 mi North 20.7 mph 31.1 mph 0.04 in Rain Light Rain
10:02 PM 59.0 °F 59.0 °F 100% 29.76 in 3.0 mi North 17.3 mph 31.1 mph 0.01 in Rain Light Rain
10:13 PM 59.0 °F 59.0 °F 100% 29.77 in 3.0 mi North 16.1 mph 27.6 mph 0.01 in Rain Light Rain
10:54 PM 57.9 °F 57.9 °F 100% 29.79 in 5.0 mi North 17.3 mph 27.6 mph 0.01 in Rain Light Rain
11:04 PM 57.0 °F 57.0 °F 100% 29.80 in 5.0 mi North 16.1 mph 28.8 mph 0.00 in Rain Light Rain
11:13 PM 57.0 °F 57.0 °F 100% 29.81 in 5.0 mi North 18.4 mph 27.6 mph 0.00 in Rain Light Rain
11:32 PM 57.0 °F 57.0 °F 100% 29.81 in 6.0 mi North 15.0 mph 29.9 mph 0.00 in Rain Light Rain
11:54 PM 57.0 °F 57.0 °F 100% 29.81 in 10.0 mi North 16.1 mph 31.1 mph 0.00 in   Overcast